Weather History for Somerset, KY

Change the Weather History Date:

Saturday, May 25, 2013

  Actual Average Record
Temperature  
Mean Temperature 56 °F -  
Max Temperature 71 °F 77 °F 87 °F (2007)
Min Temperature 41 °F 55 °F 41 °F (2013)
Degree Days  
Heating Degree Days 9    
Growing Degree Days 6 (Base 50)    
Moisture  
Dew Point 41 °F    
Average Humidity 62    
Maximum Humidity 100    
Minimum Humidity 27    
Precipitation  
Precipitation 0.00 in - - ()
Sea Level Pressure  
Sea Level Pressure 30.32 in    
Wind  
Wind Speed 2 mph (NE)    
Max Wind Speed 9 mph    
Max Gust Speed -    
Visibility 9 miles    
Events Fog    
Averages and records for this station are not official NWS values.
T = Trace of Precipitation, MM = Missing Value Source: NWS Daily Summary

Daily Weather History Graph

Daily Weather History Graph

Search for Another Location

Airport:

Trip Planner

Search our weather history database for the weather conditions in past years. The results will help you decide how hot, cold, wet, or windy it might be!

Date:

Astronomy

May. 25, 2013 Rise Set
Actual Time 6:23 AM EDT 8:47 PM EDT
Civil Twilight 5:53 AM EDT 9:17 PM EDT
Nautical Twilight 5:16 AM EDT 9:54 PM EDT
Astronomical Twilight 4:36 AM EDT 10:35 PM EDT
Moon 9:35 PM EDT (5/25) 6:48 AM EDT (5/25)
Length of Visible Light 15h 24m
Length of Day
14h 24m
Full, 100% of the Moon is Illuminated
May 25
Full
May 31
Last Quarter
Jun 8
New
Jun 16
First Quarter
Jun 23
Full

Hourly Weather History & Observations

Time (EDT) Temp. Dew Point Humidity Pressure Visibility Wind Dir Wind Speed Gust Speed Precip Events Conditions
12:15 AM 46.4 °F 42.8 °F 87% 30.33 in 10.0 mi Calm Calm - N/A   Clear
12:35 AM 46.4 °F 44.6 °F 93% 30.32 in 10.0 mi Calm Calm - N/A   Clear
12:55 AM 46.4 °F 42.8 °F 87% 30.32 in 10.0 mi Calm Calm - N/A   Clear
1:15 AM 44.6 °F 42.8 °F 93% 30.33 in 10.0 mi Calm Calm - N/A   Clear
1:35 AM 46.4 °F 42.8 °F 87% 30.32 in 10.0 mi Calm Calm - N/A   Clear
1:55 AM 44.6 °F 42.8 °F 93% 30.32 in 10.0 mi Calm Calm - N/A   Clear
2:15 AM 44.6 °F 42.8 °F 93% 30.32 in 10.0 mi Calm Calm - N/A   Clear
2:35 AM 44.6 °F 42.8 °F 93% 30.33 in 10.0 mi Calm Calm - N/A   Clear
2:55 AM 44.6 °F 42.8 °F 93% 30.33 in 10.0 mi Calm Calm - N/A   Clear
3:15 AM 42.8 °F 42.8 °F 100% 30.32 in 10.0 mi Calm Calm - N/A   Clear
3:35 AM 42.8 °F 42.8 °F 100% 30.32 in 10.0 mi Calm Calm - N/A   Clear
3:55 AM 42.8 °F 42.8 °F 100% 30.32 in 10.0 mi Calm Calm - N/A   Clear
4:15 AM 42.8 °F 42.8 °F 100% 30.32 in 10.0 mi Calm Calm - N/A   Clear
4:35 AM 41.0 °F 41.0 °F 100% 30.32 in 10.0 mi Calm Calm - N/A   Clear
4:55 AM 41.0 °F 41.0 °F 100% 30.34 in 10.0 mi Calm Calm - N/A   Clear
5:15 AM 42.8 °F 41.0 °F 93% 30.35 in 10.0 mi Calm Calm - N/A   Clear
5:35 AM 41.0 °F 41.0 °F 100% 30.35 in 10.0 mi Calm Calm - N/A   Clear
5:55 AM 41.0 °F 41.0 °F 100% 30.35 in 0.5 mi Calm Calm - N/A Fog Fog
6:15 AM 41.0 °F 41.0 °F 100% 30.35 in 0.8 mi Calm Calm - N/A   Overcast
6:35 AM 41.0 °F 41.0 °F 100% 30.36 in 0.2 mi Calm Calm - N/A Fog Fog
6:55 AM 41.0 °F 41.0 °F 100% 30.37 in 1.0 mi Calm Calm - N/A   Overcast
7:15 AM 42.8 °F 42.8 °F 100% 30.37 in 10.0 mi Calm Calm - N/A   Scattered Clouds
7:35 AM 42.8 °F 42.8 °F 100% 30.38 in 0.2 mi Calm Calm - N/A Fog Fog
7:55 AM 44.6 °F 44.6 °F 100% 30.37 in 0.5 mi Calm Calm - N/A Fog Fog
8:15 AM 46.4 °F 44.6 °F 93% 30.36 in 10.0 mi Calm Calm - N/A   Scattered Clouds
8:35 AM 48.2 °F 46.4 °F 93% 30.36 in 10.0 mi Calm Calm - N/A   Clear
8:55 AM 51.8 °F 46.4 °F 82% 30.35 in 10.0 mi Calm Calm - N/A   Clear
9:15 AM 53.6 °F 46.4 °F 77% 30.36 in 10.0 mi Calm Calm - N/A   Clear
9:35 AM 55.4 °F 44.6 °F 67% 30.37 in 10.0 mi Calm Calm - N/A   Clear
9:55 AM 59.0 °F 44.6 °F 59% 30.37 in 10.0 mi Calm Calm - N/A   Clear
10:15 AM 60.8 °F 39.2 °F 45% 30.38 in 10.0 mi SE 5.8 mph - N/A   Clear
10:35 AM 60.8 °F 41.0 °F 48% 30.36 in 10.0 mi ESE 6.9 mph - N/A   Clear
10:55 AM 62.6 °F 41.0 °F 45% 30.36 in 10.0 mi SSE 3.5 mph - N/A   Clear
11:15 AM 62.6 °F 37.4 °F 39% 30.37 in 10.0 mi ENE 4.6 mph - N/A   Clear
11:35 AM 62.6 °F 39.2 °F 42% 30.36 in 10.0 mi Calm Calm - N/A   Clear
11:55 AM 64.4 °F 41.0 °F 42% 30.36 in 10.0 mi Calm Calm - N/A   Clear
12:15 PM 66.2 °F 39.2 °F 37% 30.36 in 10.0 mi NE 4.6 mph - N/A   Clear
12:35 PM 66.2 °F 37.4 °F 35% 30.35 in 10.0 mi North 3.5 mph - N/A   Clear
12:55 PM 66.2 °F 35.6 °F 32% 30.35 in 10.0 mi Calm Calm - N/A   Clear
1:15 PM 68.0 °F 37.4 °F 33% 30.35 in 10.0 mi NNE 8.1 mph - N/A   Clear
1:35 PM 68.0 °F 37.4 °F 33% 30.33 in 10.0 mi East 6.9 mph - N/A   Clear
1:55 PM 68.0 °F 37.4 °F 33% 30.33 in 10.0 mi East 5.8 mph - N/A   Clear
2:15 PM 69.8 °F 33.8 °F 27% 30.32 in 10.0 mi NNE 4.6 mph - N/A   Clear
2:35 PM 69.8 °F 33.8 °F 27% 30.32 in 10.0 mi North 3.5 mph - N/A   Clear
2:55 PM 69.8 °F 35.6 °F 28% 30.32 in 10.0 mi North 9.2 mph - N/A   Clear
3:15 PM 69.8 °F 35.6 °F 28% 30.32 in 10.0 mi NNE 4.6 mph - N/A   Clear
3:35 PM 69.8 °F 35.6 °F 28% 30.32 in 10.0 mi NE 8.1 mph - N/A   Clear
3:55 PM 69.8 °F 37.4 °F 31% 30.31 in 10.0 mi NNE 5.8 mph - N/A   Clear
4:15 PM 69.8 °F 37.4 °F 31% 30.30 in 10.0 mi ESE 3.5 mph - N/A   Clear
4:35 PM 69.8 °F 37.4 °F 31% 30.30 in 10.0 mi Calm Calm - N/A   Clear
4:55 PM 71.6 °F 39.2 °F 31% 30.29 in 10.0 mi NE 8.1 mph - N/A   Clear
5:15 PM 71.6 °F 41.0 °F 33% 30.28 in 10.0 mi ENE 4.6 mph - N/A   Clear
5:35 PM 69.8 °F 41.0 °F 35% 30.29 in 10.0 mi NE 5.8 mph - N/A   Scattered Clouds
5:55 PM 69.8 °F 41.0 °F 35% 30.29 in 10.0 mi NNE 6.9 mph - N/A   Mostly Cloudy
6:15 PM 69.8 °F 41.0 °F 35% 30.28 in 10.0 mi NE 3.5 mph - N/A   Overcast
6:35 PM 68.0 °F 41.0 °F 37% 30.27 in 10.0 mi East 5.8 mph - N/A   Mostly Cloudy
6:55 PM 68.0 °F 41.0 °F 37% 30.27 in 10.0 mi ENE 4.6 mph - N/A   Scattered Clouds
7:15 PM 68.0 °F 41.0 °F 37% 30.26 in 10.0 mi East 5.8 mph - N/A   Clear
7:35 PM 66.2 °F 42.8 °F 43% 30.26 in 10.0 mi ENE 4.6 mph - N/A   Clear
7:55 PM 64.4 °F 42.8 °F 45% 30.26 in 10.0 mi NNE 4.6 mph - N/A   Mostly Cloudy
8:15 PM 64.4 °F 41.0 °F 42% 30.24 in 10.0 mi ENE 5.8 mph - N/A   Scattered Clouds
8:35 PM 62.6 °F 41.0 °F 45% 30.21 in 10.0 mi ESE 4.6 mph - N/A   Scattered Clouds
8:55 PM 62.6 °F 41.0 °F 45% 30.22 in 10.0 mi Calm Calm - N/A   Scattered Clouds
9:15 PM 60.8 °F 41.0 °F 48% 30.21 in 10.0 mi Calm Calm - N/A   Scattered Clouds
9:35 PM 59.0 °F 41.0 °F 51% 30.22 in 10.0 mi ENE 3.5 mph - N/A   Clear
9:55 PM 59.0 °F 41.0 °F 51% 30.24 in 10.0 mi NNE 4.6 mph - N/A   Clear
10:15 PM 57.2 °F 42.8 °F 59% 30.25 in 10.0 mi NE 4.6 mph - N/A   Scattered Clouds
10:35 PM 59.0 °F 42.8 °F 55% 30.26 in 10.0 mi NE 4.6 mph - N/A   Overcast
10:55 PM 59.0 °F 42.8 °F 55% 30.26 in 10.0 mi ENE 4.6 mph - N/A   Overcast
11:15 PM 59.0 °F 42.8 °F 55% 30.25 in 10.0 mi ENE 3.5 mph - N/A   Overcast
11:35 PM 59.0 °F 42.8 °F 55% 30.26 in 10.0 mi NE 4.6 mph - N/A   Overcast
11:55 PM 59.0 °F 42.8 °F 55% 30.27 in 10.0 mi NNE 5.8 mph - N/A   Overcast